TimeEST,TemperatureF,Dew PointF,Humidity,Sea Level PressureIn,VisibilityMPH,Wind Direction,Wind SpeedMPH,Gust SpeedMPH,PrecipitationIn,Events,Conditions,WindDirDegrees,DateUTC
12:56 AM,39.9,34.0,79,30.19,-9999.0,NW,13.8,-,N/A,,Clear,320,2014-02-17 05:56:00
1:56 AM,41.0,33.1,73,30.22,-9999.0,NNW,10.4,-,N/A,,Clear,330,2014-02-17 06:56:00
2:56 AM,39.0,32.0,76,30.22,-9999.0,North,8.1,-,N/A,,Clear,350,2014-02-17 07:56:00
3:56 AM,39.0,32.0,76,30.24,-9999.0,North,9.2,-,N/A,,Clear,360,2014-02-17 08:56:00
4:56 AM,37.9,30.0,73,30.28,-9999.0,NNE,15.0,-,N/A,,Clear,30,2014-02-17 09:56:00
5:56 AM,37.0,28.9,73,30.30,-9999.0,NE,13.8,19.6,N/A,,Clear,40,2014-02-17 10:56:00
6:56 AM,36.0,26.1,67,30.33,-9999.0,NNE,16.1,-,N/A,,Clear,30,2014-02-17 11:56:00
7:56 AM,37.0,26.1,65,30.36,-9999.0,NNE,18.4,24.2,N/A,,Clear,30,2014-02-17 12:56:00
8:56 AM,37.9,27.0,65,30.39,-9999.0,NE,19.6,25.3,N/A,,Clear,50,2014-02-17 13:56:00
9:56 AM,39.0,27.0,62,30.40,-9999.0,NE,15.0,-,N/A,,Clear,40,2014-02-17 14:56:00
10:56 AM,39.0,26.1,60,30.42,-9999.0,NE,11.5,-,N/A,,Clear,50,2014-02-17 15:56:00
11:56 AM,39.9,26.1,58,30.41,-9999.0,NE,12.7,-,N/A,,Clear,50,2014-02-17 16:56:00
12:56 PM,39.9,27.0,60,30.38,-9999.0,NE,13.8,-,N/A,,Clear,50,2014-02-17 17:56:00
1:56 PM,39.9,28.0,63,30.38,-9999.0,ENE,15.0,-,N/A,,Clear,60,2014-02-17 18:56:00
2:56 PM,39.9,27.0,60,30.36,-9999.0,ENE,15.0,21.9,N/A,,Clear,70,2014-02-17 19:56:00
3:56 PM,39.9,28.0,63,30.36,-9999.0,ENE,15.0,-,N/A,,Clear,70,2014-02-17 20:56:00
4:56 PM,39.0,28.0,65,30.36,-9999.0,ENE,12.7,-,N/A,,Clear,70,2014-02-17 21:56:00
5:56 PM,37.9,28.9,70,30.37,-9999.0,ENE,15.0,-,N/A,,Clear,70,2014-02-17 22:56:00
6:56 PM,37.9,28.9,70,30.35,-9999.0,ENE,13.8,-,N/A,,Clear,60,2014-02-17 23:56:00
7:56 PM,37.9,30.0,73,30.34,-9999.0,NE,13.8,-,N/A,,Clear,40,2014-02-18 00:56:00
8:56 PM,37.9,30.9,76,30.33,-9999.0,NE,12.7,-,N/A,,Clear,40,2014-02-18 01:56:00
9:56 PM,37.9,33.1,83,30.33,-9999.0,NE,10.4,-,N/A,,Mostly Cloudy,40,2014-02-18 02:56:00
10:56 PM,37.0,33.1,86,30.30,-9999.0,NNE,5.8,-,N/A,,Partly Cloudy,30,2014-02-18 03:56:00
11:56 PM,37.9,35.1,89,30.26,-9999.0,ENE,6.9,-,N/A,,Clear,60,2014-02-18 04:56:00